Tracking 19832 objects as of 26-Aug-2019
HD Live streaming from Space Station
objects crossing your sky now

FENGYUN 1C DEB

Track FENGYUN 1C DEB now!
10-day predictions


NORAD ID: 31878
Int'l Code: 1999-025CKD
Perigee: 609.9 km
Apogee: 809.1 km
Inclination: 99.4 °
Period: 98.8 minutes
Semi major axis: 7080 km
RCS: 0.0122 m2 (small)
Launch date: May 10, 1999
Source: People's Republic of China (PRC)
Launch site: Taiyaun Space Center, China (TSC)

Note: This is SATELLITE DEBRIS
aabbcc
Your satellite tracking list
Your tracking list is empty




NASA's NSSDC Master Catalog

Two Line Element Set (TLE):
1 31878U 99025CKD 19236.53746628  .00000292  00000-0  69879-4 0  9990
2 31878  99.4406 145.8963 0140647   4.9055 355.3480 14.57150434645290
Source of the keplerian elements: AFSPC